Regional Weather Roundup
Issued by NWS Green Bay, WI

Home | Current Version | Previous Version | Text Only | Print | Product List | Glossary On
Versions: 1 2 3 4 5 6 7 8 9 10 11 12 13 14 15 16 17 18 19 20 21 22 23 24 25 26 27 28 29 30 31 32 33 34 35 36 37 38 39 40 41 42 43 44 45 46 47 48 49 50
000
ASUS43 KGRB 181259
RWRGRB

NORTH-CENTRAL AND NORTHEAST WISCONSIN REGIONAL WEATHER ROUNDUP
NATIONAL WEATHER SERVICE GREEN BAY WI
800 AM CDT THU SEP 18 2014

WIZ005-009-010>012-018-019-181400-
NORTH CENTRAL WISCONSIN

CITY           SKY/WX    TMP DP  RH WIND       PRES   REMARKS
IRONWOOD       CLOUDY    39  37  93 E6        30.15S
MANITOWISH WTR NOT AVBL
ARBOR VITAE    NOT AVBL
EAGLE RIVER    NOT AVBL
LAND O LAKES   NOT AVBL
RHINELANDER    CLOUDY    39  38  96 E8        30.17R FOG
PHILLIPS       CLOUDY    44  42  93 E7        30.14R
ANTIGO         NOT AVBL
TOMAHAWK       NOT AVBL
MERRILL        NOT AVBL
$$

WIZ013-073-181400-
NORTHEAST WISCONSIN

CITY           SKY/WX    TMP DP  RH WIND       PRES   REMARKS
IRON MOUNTAIN  PTSUNNY   42  33  70 N3        30.19R
MARINETTE      PTSUNNY   43  36  75 N8        30.18S
$$

WIZ017-030-035>037-045-181400-
CENTRAL WISCONSIN

CITY           SKY/WX    TMP DP  RH WIND       PRES   REMARKS
MEDFORD        NOT AVBL
WAUSAU         CLOUDY    42  40  92 SE9       30.15S
MOSINEE        CLOUDY    43  43 100 E10       30.17R
MARSHFIELD     CLOUDY    45  43  93 SE10      30.15R
WISC RAPIDS    CLOUDY    46  43  89 E8        30.17R
STEVENS POINT  NOT AVBL
WAUPACA        NOT AVBL
SHAWANO        CLOUDY    44  37  77 NE12      30.19S
CLINTONVILLE   CLOUDY    43  37  81 E9        30.19R
$$

WIZ038-039-048-051-181400-
FOX VALLEY

CITY           SKY/WX    TMP DP  RH WIND       PRES   REMARKS
NWS GREEN BAY  CLOUDY    45  38  76 N8        30.18S
APPLETON       CLOUDY    45  37  76 NE10      30.18R
OSHKOSH        CLOUDY    48  44  86 NE7       30.17R
FOND DU LAC    CLOUDY    47  43  86 E7        30.17R
$$

WIZ022-050-052-181400-
EAST CENTRAL WISCONSIN

CITY           SKY/WX    TMP DP  RH WIND       PRES   REMARKS
STURGEON BAY   CLOUDY    46  37  71 N9        30.18S
MANITOWOC      NOT AVBL
SHEBOYGAN      CLOUDY    47  43  86 N12       30.16R
$$

LMZ563-521-522-541>543-181400-
LAKESHORE

STATION/POSITION TIME  TEMP    WIND        PRES    VSBY  WAVE
                       AIR SEA DIR/SP/G                  HT/PER
                 (UTC) (F)     (DEG/KT/KT) (MB)    (MI)  (FT/S)
SHEBOYGAN LKSHOR 1200   48 48  360/ 16/ 18 1021.4R
KEWAUNEE LKSHORE 1200   44     360/  5/  8 1020.6R
TWO RIVERS CG    1200   46 57              1021.2      6   0
NORTHPORT PIER   1200   46      20/  8/ 13 1022.0R
N MID LAKE BUOY  1200   49 57   40/ 14/ 16 1021.9R         2/ 5
S GREEN BAY BUOY 1200   47     VRB 16/ 19  1022.6R
STURGEON BAY CG  1200   43 52  360/  4     1021.9      6   1
CHAMBERS ISLAND  1200   47      10/ 13/ 15 1022.4R
MENOMINEE LKSHOR 1200   45     350/ 12/ 15 1022.7R
$$


USA.gov is the U.S. government's official web portal to all federal, state and local government web resources and services.